Terug naar catalogus

FENGYUN 1C DEB

ActiefPO
NORAD 31756·DEBRIS·🇨🇳 China

Gelanceerd May 10, 1999 vanaf Taiyuan Satellite Launch Center

Loading…

Volgende Passages (komende 24 uur)

TLE

VerouderendSource: Space-Track

Epoch: Sep 10, 2026, 06:10 UTC

1 31756U 99025CFF 26253.25716317  .00004281  00000-0  10869-2 0  9998
2 31756  99.3656  61.6735 0039693  76.0332 284.5268 14.50902463646444

Volg FENGYUN 1C DEB in realtime met AllMySat

Download on the App Store